Regional Weather Roundup
Issued by NWS

Home | Current Version | Previous Version | Text Only | Print | Product List | Glossary On
Versions: 1 2 3 4 5 6 7 8 9 10 11 12 13 14 15 16 17 18 19 20 21 22 23 24 25 26 27
000
ASUS44 KBMX 201410
RWRAL

ALABAMA REGIONAL WEATHER ROUNDUP
NATIONAL WEATHER SERVICE BIRMINGHAM AL
900 AM CDT FRI OCT 20 2017

NOTE: "FAIR" INDICATES FEW OR NO CLOUDS BELOW 12,000 FEET
WITH NO SIGNIFICANT WEATHER AND/OR OBSTRUCTIONS TO VISIBILITY.

THE REMARK "TC" DENOTES TEMPERATURE IN DEGREES CELSIUS.

ALZ001>011-014-016>018-020-201500-
NORTH ALABAMA

CITY           SKY/WX    TMP DP  RH WIND       PRES   REMARKS
MUSCLE SHOALS  SUNNY     54  52  93 E3        30.30S
HUNTSVILLE     MOSUNNY   56  52  86 E6        30.30S
DECATUR        SUNNY     54  51  90 E5        30.31R
HALEYVILLE     FAIR      58  51  78 CALM      30.31R
GADSDEN        SUNNY     52  50  93 NE3       30.32S
$$

ALZ012-013-022-023-030>036-040>044-201500-
WEST CENTRAL ALABAMA

CITY           SKY/WX    TMP DP  RH WIND       PRES   REMARKS
TUSCALOOSA     SUNNY     60  55  83 CALM      30.28R
DEMOPOLIS        N/A     57  54  89 CALM      30.25S
$$

ALZ015-024>026-033>036-041>044-201500-
CENTRAL ALABAMA

CITY           SKY/WX    TMP DP  RH WIND       PRES   REMARKS
BIRMINGHAM     PTSUNNY   63  50  62 E3        30.31R
MONTGOMERY     SUNNY     62  51  67 NE8       30.27R
SHELBY CO ARPT SUNNY     60  51  72 VRB3      30.29R
MAXWELL AFB    SUNNY     60  54  82 NE5       30.26R
GREENVILLE     FAIR      68  53  58 E5        30.24R
SELMA          FAIR      61  54  77 E7        30.26R
PRATTVILLE     FAIR      62  54  74 NE5       30.26R
BESSEMER       FAIR      61  50  67 E7        30.29R
TALLADEGA      FAIR      51  48  90 CALM      30.31S
PELL CITY        N/A     52  52 100 N5        30.31S
MARION         FAIR      60  53  78 E3        30.25R
SYLACAUGA      FAIR      55  55 100 E3        30.29S
$$

ALZ019-021-028-029-037-038-045>048-201500-
EAST CENTRAL ALABAMA

CITY           SKY/WX    TMP DP  RH WIND       PRES   REMARKS
ANNISTON       SUNNY     53  47  79 NE5       30.30S
ALEXANDER CITY SUNNY     56  49  79 CALM      30.29S
AUBURN         SUNNY     63  51  65 E6        30.30R
$$

ALZ051>064-201500-
SOUTHWEST ALABAMA

CITY           SKY/WX    TMP DP  RH WIND       PRES   REMARKS
MOBILE         CLOUDY    68  60  75 E9        30.21R
BROOKLEY FIELD MOSUNNY   70  62  76 E12       30.21R
EVERGREEN      SUNNY     66  58  75 CALM      30.24R
$$

ALZ049-050-065>069-201500-
SOUTHEAST ALABAMA

CITY           SKY/WX    TMP DP  RH WIND       PRES   REMARKS
DOTHAN         SUNNY     67  58  72 E6        30.27R
OZARK          SUNNY     62  55  75 NE3       30.23S
TROY           SUNNY     58  55  90 NE6       30.26R
EUFAULA        FAIR      63  55  75 CALM      30.26S
$$




USA.gov is the U.S. government's official web portal to all federal, state and local government web resources and services.